Location: Maccacari
(45.1333°N, 11.1333°E)
Time: 22:13:32
(UTC+00:00)

Cosmos 2034 Rocket - Pass Details

Date: 18 September 2020
Orbit: 957 x 1002 km, 82.9° (Epoch: 25 October)

Event Time Altitude Azimuth Distance (km) Brightness Sun altitude
Rises 18:53:02 0° 178° (S) 3,711 6.8 -16.9°
Reaches altitude 10° 18:55:33 10° 176° (S) 2,765 6.1 -17.3°
Maximum altitude 19:01:52 70° 94° (E) 1,059 4.0 -18.3°
Drops below altitude 10° 19:08:12 10° 12° (NNE) 2,770 6.5 -19.4°
Sets 19:10:44 0° 11° (N) 3,719 7.2 -19.8°
